When you browse on this site, cookies collect data to enhance your experience and personalize the content and advertising you see.
Visit our Privacy Policy to learn more. By continuing to use the site, you agree to this use of cookies and data.
  • In Belgien
  • Länderverzeichnis
  • Für 7 Tage
  • Wassertemperatur
  • Satellitenkarten
  • Wetterkarte
  • Widgets
  • user-avatar
    Anmelden

    Stündliche Wetter Sarajevo

    Heute, 22 Februar, Freitag

    Zeit Temperatur Niederschläge Wind Luftdruck Luftfeuchtigkeit
    00:00 +3°C° 0 mm 1 m/S 692 mmHg 84%
    01:00 +1°C° 0 mm 2 m/S 692 mmHg 83%
    02:00 +2°C° 0.1 mm 1 m/S 691 mmHg 83%
    03:00 +3°C° 0.1 mm 1 m/S 691 mmHg 83%
    04:00 +3°C° 0.1 mm 1 m/S 691 mmHg 83%
    05:00 +3°C° 0.2 mm 1 m/S 690 mmHg 84%
    06:00 +3°C° 0.2 mm 1 m/S 690 mmHg 84%
    07:00 +3°C° 0 mm 1 m/S 690 mmHg 85%
    08:00 +5°C° 0.1 mm 1 m/S 690 mmHg 85%
    09:00 +6°C° 0.1 mm 1 m/S 690 mmHg 84%
    10:00 +7°C° 0.1 mm 1 m/S 690 mmHg 84%
    11:00 +7°C° 0.2 mm 1 m/S 690 mmHg 84%
    12:00 +6°C° 0.2 mm 2 m/S 690 mmHg 84%
    13:00 +6°C° 0.2 mm 2 m/S 689 mmHg 84%
    14:00 +5°C° 0.3 mm 3 m/S 689 mmHg 85%
    15:00 +4°C° 0.3 mm 3 m/S 689 mmHg 87%
    16:00 +3°C° 0.3 mm 3 m/S 688 mmHg 89%
    17:00 +3°C° 0.4 mm 3 m/S 689 mmHg 90%
    18:00 +2°C° 0.4 mm 3 m/S 689 mmHg 91%
    19:00 +1°C° 0.4 mm 4 m/S 689 mmHg 91%
    20:00 -1°C° 0.5 mm 5 m/S 690 mmHg 89%
    21:00 -3°C° 0.5 mm 6 m/S 690 mmHg 87%
    22:00 -6°C° 0.5 mm 7 m/S 690 mmHg 85%
    23:00 -8°C° 0 mm 7 m/S 691 mmHg 83%

    Morgen, 23 Februar, Samstag

    Zeit Temperatur Niederschläge Wind Luftdruck Luftfeuchtigkeit
    00:00 -11°C° 0 mm 8 m/S 691 mmHg 80%
    01:00 -13°C° 0 mm 8 m/S 691 mmHg 78%
    02:00 -15°C° 0 mm 9 m/S 691 mmHg 78%
    03:00 -15°C° 0 mm 9 m/S 691 mmHg 77%
    04:00 -17°C° 0 mm 10 m/S 690 mmHg 77%
    05:00 -17°C° 0 mm 10 m/S 691 mmHg 77%
    06:00 -17°C° 0 mm 10 m/S 691 mmHg 76%
    07:00 -17°C° 0 mm 10 m/S 691 mmHg 76%
    08:00 -15°C° 0.1 mm 10 m/S 691 mmHg 74%
    09:00 -14°C° 0.1 mm 10 m/S 691 mmHg 72%
    10:00 -13°C° 0.1 mm 10 m/S 692 mmHg 70%
    11:00 -12°C° 0 mm 10 m/S 692 mmHg 69%
    12:00 -10°C° 0 mm 9 m/S 692 mmHg 68%
    13:00 -10°C° 0 mm 9 m/S 693 mmHg 67%
    14:00 -10°C° 0 mm 8 m/S 693 mmHg 66%
    15:00 -10°C° 0 mm 8 m/S 693 mmHg 66%
    16:00 -9°C° 0 mm 7 m/S 693 mmHg 65%
    17:00 -11°C° 0 mm 7 m/S 694 mmHg 67%
    18:00 -11°C° 0 mm 6 m/S 694 mmHg 69%
    19:00 -12°C° 0 mm 6 m/S 694 mmHg 72%
    20:00 -12°C° 0 mm 6 m/S 694 mmHg 73%
    21:00 -12°C° 0 mm 5 m/S 695 mmHg 75%
    22:00 -12°C° 0 mm 5 m/S 695 mmHg 77%
    23:00 -12°C° 0 mm 5 m/S 695 mmHg 78%

    übermorgen, 24 Februar, Sonntag

    Zeit Temperatur Niederschläge Wind Luftdruck Luftfeuchtigkeit
    00:00 -12°C° 0 mm 5 m/S 695 mmHg 79%
    01:00 -12°C° 0 mm 5 m/S 695 mmHg 80%
    02:00 -12°C° 0 mm 5 m/S 695 mmHg 80%
    03:00 -12°C° 0 mm 5 m/S 695 mmHg 81%
    04:00 -12°C° 0 mm 5 m/S 695 mmHg 82%
    05:00 -12°C° 0 mm 5 m/S 695 mmHg 82%
    06:00 -13°C° 0 mm 5 m/S 695 mmHg 81%
    07:00 -13°C° 0 mm 5 m/S 695 mmHg 81%
    08:00 -11°C° 0 mm 5 m/S 695 mmHg 75%
    09:00 -10°C° 0 mm 5 m/S 696 mmHg 68%
    10:00 -7°C° 0 mm 5 m/S 696 mmHg 62%
    11:00 -6°C° 0 mm 5 m/S 696 mmHg 60%
    12:00 -5°C° 0 mm 5 m/S 696 mmHg 57%
    13:00 -4°C° 0 mm 5 m/S 697 mmHg 55%
    14:00 -4°C° 0 mm 5 m/S 696 mmHg 56%
    15:00 -4°C° 0 mm 5 m/S 696 mmHg 58%
    16:00 -4°C° 0 mm 5 m/S 696 mmHg 59%
    17:00 -5°C° 0 mm 5 m/S 696 mmHg 64%
    18:00 -7°C° 0 mm 5 m/S 696 mmHg 69%
    19:00 -8°C° 0 mm 4 m/S 697 mmHg 73%
    20:00 -8°C° 0 mm 4 m/S 697 mmHg 75%
    21:00 -9°C° 0 mm 4 m/S 697 mmHg 76%
    22:00 -9°C° 0 mm 4 m/S 697 mmHg 77%
    23:00 -9°C° 0 mm 4 m/S 697 mmHg 77%

    25 Februar, Montag

    Zeit Temperatur Niederschläge Wind Luftdruck Luftfeuchtigkeit
    00:00 -9°C° 0 mm 4 m/S 697 mmHg 77%
    01:00 -10°C° 0 mm 4 m/S 697 mmHg 77%
    02:00 -10°C° 0 mm 4 m/S 697 mmHg 76%
    03:00 -10°C° 0 mm 4 m/S 696 mmHg 75%
    04:00 -10°C° 0 mm 4 m/S 696 mmHg 75%
    05:00 -10°C° 0 mm 4 m/S 696 mmHg 74%
    06:00 -10°C° 0 mm 4 m/S 696 mmHg 74%
    07:00 -10°C° 0 mm 4 m/S 696 mmHg 73%
    08:00 -8°C° 0 mm 4 m/S 697 mmHg 68%
    09:00 -5°C° 0 mm 4 m/S 697 mmHg 63%
    10:00 -3°C° 0 mm 4 m/S 697 mmHg 59%
    11:00 -2°C° 0 mm 5 m/S 697 mmHg 58%
    12:00 -1°C° 0 mm 5 m/S 697 mmHg 57%
    13:00 +1°C° 0 mm 5 m/S 697 mmHg 56%
    14:00 0°C° 0 mm 5 m/S 697 mmHg 58%
    15:00 0°C° 0 mm 5 m/S 697 mmHg 60%
    16:00 0°C° 0 mm 4 m/S 696 mmHg 63%
    17:00 -2°C° 0 mm 4 m/S 696 mmHg 66%
    18:00 -3°C° 0 mm 4 m/S 696 mmHg 70%
    19:00 -4°C° 0 mm 4 m/S 696 mmHg 74%
    20:00 -5°C° 0 mm 4 m/S 696 mmHg 74%
    21:00 -5°C° 0 mm 4 m/S 696 mmHg 73%
    22:00 -5°C° 0 mm 4 m/S 696 mmHg 72%
    23:00 -5°C° 0 mm 4 m/S 696 mmHg 72%

    26 Februar, Dienstag

    Zeit Temperatur Niederschläge Wind Luftdruck Luftfeuchtigkeit
    00:00 -5°C° 0 mm 4 m/S 695 mmHg 72%
    01:00 -5°C° 0 mm 4 m/S 695 mmHg 71%
    02:00 -5°C° 0 mm 4 m/S 695 mmHg 72%
    03:00 -5°C° 0 mm 4 m/S 695 mmHg 74%
    04:00 -5°C° 0 mm 4 m/S 695 mmHg 75%
    05:00 -5°C° 0 mm 4 m/S 695 mmHg 75%
    06:00 -5°C° 0 mm 4 m/S 695 mmHg 75%
    07:00 -5°C° 0 mm 3 m/S 695 mmHg 75%
    08:00 -3°C° 0 mm 4 m/S 695 mmHg 70%
    09:00 -1°C° 0 mm 4 m/S 695 mmHg 66%
    10:00 +1°C° 0 mm 4 m/S 696 mmHg 61%
    11:00 +3°C° 0 mm 4 m/S 695 mmHg 59%
    12:00 +4°C° 0 mm 4 m/S 695 mmHg 56%
    13:00 +6°C° 0 mm 4 m/S 695 mmHg 54%
    14:00 +5°C° 0 mm 3 m/S 694 mmHg 56%
    15:00 +5°C° 0 mm 3 m/S 694 mmHg 58%
    16:00 +4°C° 0 mm 3 m/S 693 mmHg 60%
    17:00 +3°C° 0 mm 3 m/S 693 mmHg 62%
    18:00 +2°C° 0 mm 3 m/S 693 mmHg 64%
    19:00 +1°C° 0 mm 2 m/S 693 mmHg 66%
    20:00 0°C° 0 mm 3 m/S 692 mmHg 68%
    21:00 0°C° 0 mm 3 m/S 692 mmHg 70%
    22:00 0°C° 0 mm 3 m/S 692 mmHg 73%
    23:00 0°C° 0 mm 3 m/S 692 mmHg 76%

    27 Februar, Mittwoch

    Zeit Temperatur Niederschläge Wind Luftdruck Luftfeuchtigkeit
    00:00 0°C° 0 mm 3 m/S 691 mmHg 80%
    01:00 0°C° 0 mm 3 m/S 691 mmHg 83%
    02:00 0°C° 0 mm 3 m/S 691 mmHg 87%
    03:00 0°C° 0 mm 3 m/S 691 mmHg 90%
    04:00 0°C° 0 mm 3 m/S 690 mmHg 93%
    05:00 -1°C° 0 mm 4 m/S 690 mmHg 93%
    06:00 -1°C° 0 mm 4 m/S 690 mmHg 92%
    07:00 -1°C° 0 mm 4 m/S 690 mmHg 92%
    08:00 0°C° 0 mm 5 m/S 691 mmHg 84%
    09:00 +1°C° 0 mm 5 m/S 691 mmHg 76%
    10:00 +2°C° 0 mm 6 m/S 691 mmHg 69%
    11:00 +3°C° 0 mm 6 m/S 691 mmHg 63%
    12:00 +3°C° 0 mm 6 m/S 691 mmHg 57%
    13:00 +4°C° 0 mm 6 m/S 691 mmHg 51%
    14:00 +3°C° 0 mm 6 m/S 691 mmHg 52%
    15:00 +3°C° 0 mm 6 m/S 690 mmHg 54%
    16:00 +2°C° 0 mm 5 m/S 690 mmHg 56%
    17:00 +1°C° 0 mm 5 m/S 690 mmHg 63%
    18:00 0°C° 0 mm 4 m/S 690 mmHg 69%
    19:00 -1°C° 0 mm 3 m/S 690 mmHg 76%
    20:00 -1°C° 0 mm 3 m/S 690 mmHg 76%
    21:00 -1°C° 0 mm 3 m/S 690 mmHg 76%
    22:00 -2°C° 0 mm 3 m/S 690 mmHg 75%
    23:00 -2°C° 0 mm 3 m/S 690 mmHg 75%
    Mehr zeigen